CZ-6A DEB, 60802

Orbit data source: Space-Track

CZ-6A DEB, 60802 is space debris in LEO originally from a launch on Tue, 06 Aug 2024 UTC launched from the Taiyaun Space Center, China (TSC). Debris objects in space refer to the collection of defunct objects orbiting the Earth. Examples of debris include non-operational satellites, rocket bodies, and fragments generated from explosions, collisions, or faulty payload assembly.

Loading next visibility...
Identifier
60802, 2024-140GD
Orbit
LEO
Country
Flag of CNCN / PRC
Related business
Manufacturer
SAST
Mission
Spacecraft
Bus & Motor
Unknown
Mass
Unknown
Launch date (UTC)
2024-08-06 (1 year ago)
Launch vehicle
Unknown
Launch site
Taiyaun Space Center, China (TSC)
Object type
Payload
Rocket body
Debris
Shape & HBR
Unknown shape, 0.3 m
Radar Cross Section
Medium (>0.1 m² and <1 m²)

Expand to show TLE details & history
Last TLE update: 9 hours ago

TLE from 9 hours ago
0 CZ-6A DEB
1 60802U 24140GD  25350.89073907  .00000372  00000-0  72517-4 0  9993
2 60802  89.0393 294.2910 0131707 166.9805 193.4861 14.55140737 71514
Epoch: 2025-12-16T21:22Z
TLE epoch observation values (Epoch: 2025-12-16T21:22:39.855Z)
Latitude
-0.00008°
Longitude
-112.14352°
Altitude
802.865 km
Speed
7.404 km/s
True Right ascension
19h 37m 09s
True Declination
0° 00' 00"
Sunlit
Object was in daylight at epoch
Visualization orbit readout
Latitude
Unknown
Longitude
Unknown
Altitude
Unknown
Speed
Unknown
Apparent Right ascension
Unknown
Apparent Declination
Unknown
Sunlit
N/A
Visualization observer readout
Local Sidereal Time
05:28:01
Azimuth
Unknown
Elevation
Unknown
Doppler factor
Unknown
Orbital elements
Apogee altitude
799.108 km
Perigee altitude
612.507 km
Semi-major axis
7,083.945 km
Eccentricity
0.01317
Inclination
89.0393°
RAAN
294.291°
Arg. of periapsis
166.9805°
True anomaly
193.13968°
Mean anomaly
193.4861°
Eccentric anomaly
193.31234°
Mean motion
3.64024 °/min
Orbital period
98.89 mins
BSTAR
0.000072517
Loading maneuver chart data...
Computing Atmospheric mass density...

Documentation

Showing up to 5 results
|